Weather History for Newark Heath, OH

Change the Weather History Date:

Saturday, August 3, 2013

  Actual Average Record
Temperature  
Mean Temperature 70 °F -  
Max Temperature 81 °F 84 °F 98 °F (1955)
Min Temperature 60 °F 61 °F 46 °F (1965)
Cooling Degree Days 5    
Growing Degree Days 20 (Base 50)    
Moisture  
Dew Point 63 °F    
Average Humidity 84    
Maximum Humidity 100    
Minimum Humidity 52    
Precipitation  
Precipitation 0.47 in - - ()
Sea Level Pressure  
Sea Level Pressure 29.99 in    
Wind  
Wind Speed 3 mph (West)    
Max Wind Speed 9 mph    
Max Gust Speed -    
Visibility 7 miles    
Events Rain    
Averages and records for this station are not official NWS values.
T = Trace of Precipitation, MM = Missing Value Source: NWS Daily Summary

Daily Weather History Graph

Daily Weather History Graph

Search for Another Location

Airport:

Trip Planner

Search our weather history database for the weather conditions in past years. The results will help you decide how hot, cold, wet, or windy it might be!

Date:

Astronomy

Aug. 03, 2013 Rise Set
Actual Time 6:30 AM EDT 8:41 PM EDT
Civil Twilight 6:00 AM EDT 9:11 PM EDT
Nautical Twilight 5:23 AM EDT 9:47 PM EDT
Astronomical Twilight 4:42 AM EDT 10:28 PM EDT
Moon 3:38 AM EDT (8/3) 6:22 PM EDT (8/3)
Length of Visible Light 15h 11m
Length of Day
14h 10m
Waning Crescent, 9% of the Moon is Illuminated
Aug 3
Waning Crescent
Aug 6
New
Aug 14
First Quarter
Aug 20
Full
Aug 28
Last Quarter

Hourly Weather History & Observations

Time (EDT) Temp. Heat Index Dew Point Humidity Pressure Visibility Wind Dir Wind Speed Gust Speed Precip Events Conditions
12:54 AM 71.1 °F - 64.0 °F 78% 29.97 in 10.0 mi West 8.1 mph - 0.01 in Rain Light Rain
1:54 AM 68.0 °F - 64.0 °F 87% 30.00 in 4.0 mi WNW 9.2 mph - 0.10 in Rain Rain
2:16 AM 66.2 °F - 64.4 °F 94% 30.02 in 2.0 mi West 5.8 mph - 0.15 in Rain Heavy Rain
2:25 AM 66.2 °F - 64.4 °F 94% 30.02 in 3.0 mi West 5.8 mph - 0.20 in Rain Light Rain
2:39 AM 66.2 °F - 64.4 °F 94% 30.01 in 10.0 mi South 3.5 mph - 0.20 in Rain Light Rain
2:54 AM 68.0 °F - 64.0 °F 87% 29.99 in 10.0 mi South 3.5 mph - 0.20 in   Overcast
3:54 AM 66.9 °F - 64.9 °F 93% 29.99 in 6.0 mi Calm Calm - 0.01 in Rain Light Rain
4:54 AM 66.0 °F - 63.0 °F 90% 29.96 in 10.0 mi Calm Calm - 0.03 in Rain Light Rain
5:54 AM 66.0 °F - 63.0 °F 90% 29.97 in 6.0 mi Calm Calm - 0.03 in Rain Light Rain
6:54 AM 64.9 °F - 63.0 °F 93% 29.97 in 10.0 mi SSW 4.6 mph - 0.02 in   Overcast
7:51 AM 66.2 °F - 62.6 °F 88% 29.98 in 9.0 mi Calm Calm - N/A   Overcast
7:54 AM 66.0 °F - 63.0 °F 90% 29.97 in 9.0 mi Calm Calm - N/A   Overcast
8:47 AM 66.2 °F - 62.6 °F 88% 29.99 in 5.0 mi SSW 3.5 mph - 0.02 in Rain Light Rain
8:54 AM 66.0 °F - 63.0 °F 90% 29.97 in 2.0 mi Calm Calm - 0.04 in Rain Rain
9:05 AM 66.2 °F - 64.4 °F 94% 29.99 in 3.0 mi Calm Calm - 0.01 in Rain Light Rain
9:18 AM 66.2 °F - 64.4 °F 94% 29.98 in 4.0 mi Calm Calm - 0.02 in Rain Light Rain
9:54 AM 66.0 °F - 64.0 °F 93% 29.97 in 10.0 mi Calm Calm - 0.03 in Rain Light Rain
10:54 AM 66.9 °F - 64.9 °F 93% 29.98 in 6.0 mi Calm Calm - 0.00 in   Overcast
11:25 AM 66.2 °F - 64.4 °F 94% 30.00 in 2.5 mi Calm Calm - N/A   Overcast
11:33 AM 66.2 °F - 64.4 °F 94% 30.01 in 1.8 mi Calm Calm - N/A   Overcast
11:45 AM 66.2 °F - 64.4 °F 94% 30.00 in 3.0 mi Calm Calm - 0.00 in Rain Light Rain
11:54 AM 68.0 °F - 64.9 °F 90% 29.99 in 5.0 mi Calm Calm - 0.00 in   Overcast
12:06 PM 68.0 °F - 66.2 °F 94% 30.00 in 8.0 mi Calm Calm - N/A   Overcast
12:13 PM 69.8 °F - 66.2 °F 88% 30.00 in 9.0 mi Calm Calm - N/A   Overcast
12:44 PM 73.4 °F - 66.2 °F 78% 30.00 in 10.0 mi Calm Calm - N/A   Mostly Cloudy
12:54 PM 73.9 °F - 66.9 °F 79% 29.98 in 10.0 mi Calm Calm - N/A   Mostly Cloudy
1:41 PM 75.2 °F - 64.4 °F 69% 30.00 in 10.0 mi North 3.5 mph - N/A   Mostly Cloudy
1:54 PM 73.9 °F - 66.0 °F 76% 29.99 in 10.0 mi Calm Calm - N/A   Mostly Cloudy
2:03 PM 73.4 °F - 64.4 °F 73% 30.00 in 10.0 mi Calm Calm - N/A   Mostly Cloudy
2:54 PM 78.1 °F - 64.9 °F 64% 29.97 in 10.0 mi Variable 3.5 mph - N/A   Partly Cloudy
3:54 PM 80.1 °F 81.5 °F 63.0 °F 56% 29.96 in 10.0 mi Variable 4.6 mph - N/A   Mostly Cloudy
4:54 PM 78.1 °F - 59.0 °F 52% 29.96 in 10.0 mi NW 8.1 mph - N/A   Scattered Clouds
5:54 PM 79.0 °F - 61.0 °F 54% 29.97 in 10.0 mi North 6.9 mph - N/A   Mostly Cloudy
6:54 PM 78.1 °F - 60.1 °F 54% 29.97 in 10.0 mi North 5.8 mph - N/A   Clear
7:54 PM 75.0 °F - 60.1 °F 60% 29.98 in 10.0 mi Calm Calm - N/A   Clear
8:54 PM 66.9 °F - 62.1 °F 84% 29.99 in 10.0 mi Calm Calm - N/A   Clear
9:54 PM 64.9 °F - 62.1 °F 90% 30.01 in 10.0 mi Calm Calm - 0.00 in   Clear
10:54 PM 63.0 °F - 61.0 °F 93% 30.01 in 8.0 mi Calm Calm - N/A   Clear
11:41 PM 60.8 °F - 59.0 °F 94% 30.03 in 1.8 mi Calm Calm - N/A   Clear
11:50 PM 60.8 °F - 60.8 °F 100% 30.03 in 5.0 mi Calm Calm - N/A   Clear
11:54 PM 61.0 °F - 59.0 °F 93% 30.02 in 9.0 mi Calm Calm - N/A   Clear